Hourly Weather Lukyanenki

Today, 15 May, Saturday

Time Temperature Precipitation Wind Pressure Humidity
00:00 +12°C° 0 mm 2 mps 736 mmHg 98%
01:00 +12°C° 0 mm 2 mps 736 mmHg 98%
02:00 +12°C° 0 mm 2 mps 735 mmHg 98%
03:00 +12°C° 0.1 mm 2 mps 735 mmHg 98%
04:00 +12°C° 0.1 mm 2 mps 735 mmHg 97%
05:00 +12°C° 0.1 mm 2 mps 735 mmHg 97%
06:00 +14°C° 0 mm 2 mps 735 mmHg 92%
07:00 +14°C° 0 mm 3 mps 736 mmHg 86%
08:00 +17°C° 0 mm 3 mps 736 mmHg 81%
09:00 +18°C° 0.4 mm 3 mps 736 mmHg 76%
10:00 +18°C° 0.4 mm 4 mps 736 mmHg 71%
11:00 +19°C° 0.4 mm 4 mps 736 mmHg 66%
12:00 +19°C° 0.5 mm 4 mps 736 mmHg 65%
13:00 +19°C° 0.5 mm 4 mps 736 mmHg 64%
14:00 +19°C° 0.5 mm 4 mps 736 mmHg 63%
15:00 +19°C° 0.4 mm 4 mps 736 mmHg 68%
16:00 +18°C° 0.4 mm 4 mps 736 mmHg 72%
17:00 +18°C° 0.4 mm 3 mps 736 mmHg 77%
18:00 +16°C° 0.4 mm 3 mps 736 mmHg 83%
19:00 +14°C° 0.4 mm 3 mps 736 mmHg 89%
20:00 +13°C° 0.4 mm 2 mps 736 mmHg 95%
21:00 +13°C° 0 mm 2 mps 736 mmHg 95%
22:00 +12°C° 0 mm 3 mps 736 mmHg 96%
23:00 +11°C° 0 mm 3 mps 736 mmHg 96%

Tomorrow, 16 May, Sunday

Time Temperature Precipitation Wind Pressure Humidity
00:00 +11°C° 0 mm 3 mps 737 mmHg 97%
01:00 +12°C° 0 mm 2 mps 737 mmHg 97%
02:00 +10°C° 0 mm 2 mps 737 mmHg 97%
03:00 +12°C° 0.1 mm 2 mps 737 mmHg 97%
04:00 +12°C° 0.1 mm 2 mps 737 mmHg 97%
05:00 +12°C° 0.1 mm 2 mps 738 mmHg 97%
06:00 +12°C° 0 mm 3 mps 738 mmHg 94%
07:00 +13°C° 0 mm 3 mps 738 mmHg 90%
08:00 +14°C° 0 mm 3 mps 739 mmHg 87%
09:00 +16°C° 0 mm 3 mps 739 mmHg 83%
10:00 +17°C° 0 mm 3 mps 739 mmHg 79%
11:00 +18°C° 0 mm 3 mps 739 mmHg 75%
12:00 +19°C° 0.3 mm 3 mps 739 mmHg 72%
13:00 +19°C° 0.3 mm 3 mps 740 mmHg 69%
14:00 +20°C° 0.3 mm 3 mps 740 mmHg 67%
15:00 +20°C° 0.2 mm 3 mps 740 mmHg 68%
16:00 +20°C° 0.2 mm 2 mps 740 mmHg 69%
17:00 +20°C° 0.2 mm 2 mps 740 mmHg 70%
18:00 +18°C° 0 mm 2 mps 740 mmHg 76%
19:00 +18°C° 0 mm 1 mps 740 mmHg 82%
20:00 +15°C° 0 mm 1 mps 740 mmHg 88%
21:00 +14°C° 0 mm 1 mps 740 mmHg 89%
22:00 +14°C° 0 mm 1 mps 740 mmHg 91%
23:00 +13°C° 0 mm 1 mps 740 mmHg 92%

Day after tomorrow, 17 May, Monday

Time Temperature Precipitation Wind Pressure Humidity
00:00 +13°C° 0 mm 1 mps 740 mmHg 93%
01:00 +13°C° 0 mm 2 mps 740 mmHg 94%
02:00 +13°C° 0 mm 2 mps 740 mmHg 94%
03:00 +13°C° 0 mm 2 mps 740 mmHg 94%
04:00 +13°C° 0 mm 2 mps 740 mmHg 94%
05:00 +13°C° 0 mm 2 mps 740 mmHg 94%
06:00 +15°C° 0 mm 2 mps 740 mmHg 87%
07:00 +16°C° 0 mm 3 mps 740 mmHg 81%
08:00 +18°C° 0 mm 3 mps 740 mmHg 74%
09:00 +20°C° 0 mm 3 mps 739 mmHg 69%
10:00 +21°C° 0 mm 4 mps 739 mmHg 64%
11:00 +23°C° 0 mm 4 mps 738 mmHg 58%
12:00 +25°C° 0 mm 5 mps 738 mmHg 57%
13:00 +26°C° 0 mm 5 mps 737 mmHg 56%
14:00 +27°C° 0 mm 6 mps 737 mmHg 55%
15:00 +26°C° 0 mm 6 mps 736 mmHg 58%
16:00 +26°C° 0 mm 6 mps 735 mmHg 61%
17:00 +24°C° 0 mm 6 mps 735 mmHg 63%
18:00 +23°C° 0 mm 5 mps 735 mmHg 67%
19:00 +21°C° 0 mm 5 mps 734 mmHg 70%
20:00 +20°C° 0 mm 4 mps 734 mmHg 74%
21:00 +20°C° 0 mm 4 mps 734 mmHg 77%
22:00 +19°C° 0 mm 4 mps 734 mmHg 80%
23:00 +18°C° 0 mm 4 mps 733 mmHg 83%

18 May, Tuesday

Time Temperature Precipitation Wind Pressure Humidity
00:00 +18°C° 0.1 mm 4 mps 733 mmHg 86%
01:00 +17°C° 0.1 mm 4 mps 733 mmHg 89%
02:00 +17°C° 0.1 mm 4 mps 733 mmHg 92%
03:00 +17°C° 0.2 mm 4 mps 732 mmHg 93%
04:00 +17°C° 0.2 mm 4 mps 732 mmHg 94%
05:00 +16°C° 0.2 mm 5 mps 732 mmHg 95%
06:00 +17°C° 0 mm 5 mps 732 mmHg 92%
07:00 +17°C° 0 mm 5 mps 732 mmHg 88%
08:00 +19°C° 0 mm 6 mps 732 mmHg 85%
09:00 +19°C° 0.1 mm 6 mps 732 mmHg 84%
10:00 +19°C° 0.1 mm 6 mps 733 mmHg 84%
11:00 +19°C° 0.1 mm 6 mps 733 mmHg 83%
12:00 +19°C° 0.3 mm 5 mps 733 mmHg 82%
13:00 +17°C° 0.3 mm 5 mps 733 mmHg 81%
14:00 +17°C° 0.3 mm 5 mps 733 mmHg 79%
15:00 +18°C° 0.2 mm 4 mps 733 mmHg 80%
16:00 +18°C° 0.2 mm 4 mps 734 mmHg 80%
17:00 +18°C° 0.2 mm 3 mps 734 mmHg 80%
18:00 +17°C° 0.4 mm 3 mps 734 mmHg 84%
19:00 +16°C° 0.4 mm 2 mps 734 mmHg 89%
20:00 +15°C° 0.4 mm 2 mps 734 mmHg 94%
21:00 +14°C° 0 mm 2 mps 734 mmHg 94%
22:00 +14°C° 0 mm 2 mps 734 mmHg 95%
23:00 +13°C° 0 mm 2 mps 734 mmHg 95%

19 May, Wednesday

Time Temperature Precipitation Wind Pressure Humidity
00:00 +13°C° 0 mm 2 mps 733 mmHg 96%
01:00 +13°C° 0 mm 2 mps 733 mmHg 96%
02:00 +13°C° 0 mm 2 mps 733 mmHg 96%
03:00 +13°C° 1 mm 2 mps 733 mmHg 97%
04:00 +13°C° 1 mm 2 mps 733 mmHg 97%
05:00 +13°C° 1 mm 2 mps 732 mmHg 98%
06:00 +12°C° 0.9 mm 3 mps 733 mmHg 97%
07:00 +12°C° 0.9 mm 3 mps 733 mmHg 96%
08:00 +12°C° 0.9 mm 4 mps 733 mmHg 96%
09:00 +13°C° 0.1 mm 4 mps 734 mmHg 93%
10:00 +13°C° 0.1 mm 4 mps 734 mmHg 89%
11:00 +13°C° 0.1 mm 4 mps 734 mmHg 86%
12:00 +13°C° 0.1 mm 4 mps 735 mmHg 84%
13:00 +13°C° 0.1 mm 5 mps 735 mmHg 82%
14:00 +13°C° 0.1 mm 5 mps 736 mmHg 79%
15:00 +13°C° 0 mm 5 mps 736 mmHg 77%
16:00 +13°C° 0 mm 4 mps 736 mmHg 75%
17:00 +13°C° 0 mm 4 mps 736 mmHg 73%
18:00 +12°C° 0 mm 3 mps 736 mmHg 77%
19:00 +11°C° 0 mm 3 mps 737 mmHg 81%
20:00 +10°C° 0 mm 2 mps 737 mmHg 86%
21:00 +10°C° 0 mm 2 mps 737 mmHg 88%
22:00 +9°C° 0 mm 2 mps 738 mmHg 90%
23:00 +8°C° 0 mm 2 mps 738 mmHg 92%

20 May, Thursday

Time Temperature Precipitation Wind Pressure Humidity
00:00 +8°C° 0 mm 2 mps 738 mmHg 94%
01:00 +7°C° 0 mm 2 mps 738 mmHg 95%
02:00 +7°C° 0 mm 2 mps 739 mmHg 96%
03:00 +7°C° 0 mm 2 mps 739 mmHg 95%
04:00 +7°C° 0 mm 2 mps 739 mmHg 94%
05:00 +7°C° 0 mm 2 mps 739 mmHg 94%
06:00 +9°C° 0 mm 2 mps 740 mmHg 84%
07:00 +12°C° 0 mm 2 mps 740 mmHg 75%
08:00 +13°C° 0 mm 3 mps 740 mmHg 66%
09:00 +14°C° 0 mm 3 mps 740 mmHg 60%
10:00 +16°C° 0 mm 3 mps 741 mmHg 55%
11:00 +17°C° 0 mm 3 mps 741 mmHg 49%
12:00 +17°C° 0 mm 3 mps 740 mmHg 48%
13:00 +18°C° 0 mm 3 mps 740 mmHg 47%
14:00 +18°C° 0 mm 3 mps 740 mmHg 46%
15:00 +18°C° 0 mm 2 mps 740 mmHg 49%
16:00 +17°C° 0 mm 2 mps 740 mmHg 52%
17:00 +17°C° 0 mm 2 mps 740 mmHg 55%
18:00 +15°C° 0 mm 2 mps 740 mmHg 62%
19:00 +13°C° 0 mm 1 mps 740 mmHg 68%
20:00 +12°C° 0 mm 1 mps 740 mmHg 75%
21:00 +11°C° 0 mm 1 mps 740 mmHg 76%
22:00 +11°C° 0 mm 1 mps 740 mmHg 78%
23:00 +10°C° 0 mm 1 mps 740 mmHg 79%
Show more

We Need Your Consent

Meteoprog and our Service Providers may store and access personal data such as cookies, device identifiers or other similar technologies on your device and process such data to personalise content and ads, as well as provide social media features and to analyse the traffic.

  • Store and/or access information on your device

    Cookies, device identifiers or other information can be stored or accessed on your device for the purposes indicated above.

  • Personalised ads and content, ad and content measurement, audience insights, and products development

    Ads and content can be personalised based on a profile. More data can be added to better personalise ads and content. Ad and content performance can be measured. Insights about the audience who saw the ads and content can be derived. Such data can be used to develop or improve user’s experience, systems and software.

By clicking ‘I Agree’ you will allow the use of indicated cookies, device identifiers, web beacons or other similar technologies. Your settings can be changed in the browser on your device.

For certain purposes, legitimate interests may be relied on, rather than consent. You can read more about this in our Privacy and Cookie Policy.